Theta_e
304 303 303 303 302 303 304 303 302 302 302 302 302 302 302 302 302 301 300 296 296 296 297 299 304 305 299 299 299 299 300 304 309 313 312 310 310 312 312 311 312 314 314 313 313 313 314
302 302 302 302 302 303 303 301 302 302 302 302 302 302 302 301 301 301 298 296 296 298 299 301 305 305 304 297 298 299 300 300 300 307 312 309 310 310 310 310 311 312 313 313 313 313 313
303 303 302 302 302 300 301 301 300 302 302 302 301 301 301 300 300 298 297 297 298 299 301 305 305 304 303 299 298 298 300 307 308 303 304 304 307 312 312 313 312 313 314 314 314 314 315
301 302 302 302 301 301 301 301 301 301 301 301 301 301 300 299 298 296 295 296 299 303 305 303 304 302 300 298 301 306 306 308 308 307 303 302 303 306 312 312 309 312 313 315 315 315 315
301 300 300 301 300 301 301 301 300 301 301 301 300 300 300 299 297 296 295 297 302 304 301 304 303 301 301 301 306 308 305 308 307 306 304 305 306 308 308 309 309 310 311 314 315 315 316
301 301 301 301 300 300 300 300 300 299 300 300 299 299 299 296 294 296 295 297 299 301 299 304 306 304 303 303 302 303 301 304 305 306 305 305 305 306 306 309 309 309 311 313 314 316 316
300 300 300 300 299 299 299 299 299 299 299 299 299 299 297 293 293 296 295 296 298 299 298 299 299 300 299 300 300 301 302 303 304 306 308 305 305 306 306 308 308 308 311 313 314 315 316
299 299 299 299 299 298 298 298 298 298 299 299 299 299 294 293 295 294 295 297 297 296 299 299 300 300 300 300 301 302 301 301 300 300 306 307 307 307 305 306 307 308 308 309 309 312 313
299 299 299 298 298 298 298 298 298 298 298 298 298 298 293 292 295 294 296 296 296 296 299 299 300 301 301 301 302 302 301 302 301 300 302 308 308 308 306 304 305 307 308 308 308 311 314
298 298 298 298 298 297 297 298 298 298 298 296 297 298 293 293 294 295 295 295 295 297 297 296 300 301 299 300 302 300 300 302 302 303 301 303 305 308 308 307 306 307 306 307 308 311 310
297 297 297 297 297 297 297 297 297 298 296 295 297 295 294 293 294 295 295 295 296 298 292 296 299 300 299 299 299 302 302 301 302 301 302 303 305 306 308 309 307 308 307 308 308 309 309
297 297 296 296 296 296 297 297 297 296 295 296 296 294 294 295 295 296 295 295 297 294 292 295 299 297 299 299 302 303 304 303 301 301 301 301 301 305 306 306 307 307 307 306 307 308 308
296 296 296 296 296 296 296 297 297 296 294 294 293 293 294 294 295 295 295 294 293 292 295 296 297 298 299 301 302 300 301 305 306 301 302 301 300 301 307 306 307 307 308 309 311 311 312
296 296 296 295 296 297 295 296 296 295 294 294 293 293 294 295 295 295 295 293 292 295 295 297 299 299 300 301 299 300 304 305 308 304 303 306 305 300 301 307 308 307 309 310 309 312 311
296 296 297 296 295 295 294 294 295 295 294 294 294 294 294 295 295 295 294 293 294 296 298 299 299 299 299 299 300 302 305 307 307 305 309 310 303 301 301 304 311 311 310 311 312 315 316
296 295 296 296 294 295 294 295 295 296 294 294 294 293 294 295 295 295 295 297 295 297 298 298 300 299 300 300 301 305 306 305 306 304 304 310 313 310 308 302 305 310 312 313 313 314 315
296 296 295 295 294 295 293 295 295 295 294 294 293 293 296 296 297 295 296 296 297 297 298 299 300 300 300 302 303 305 305 303 304 303 306 308 310 312 311 305 303 305 310 311 313 313 312
296 295 295 294 294 294 293 296 294 295 294 294 292 291 296 296 294 296 296 297 299 299 299 300 300 300 301 302 304 305 305 303 303 303 306 309 311 313 310 314 314 306 307 310 314 313 314
295 294 293 293 292 294 294 294 294 295 294 294 292 292 294 296 293 294 296 298 299 299 300 301 301 302 302 303 303 303 302 303 303 304 306 307 312 314 312 314 312 314 311 310 309 313 313
296 296 294 293 293 294 295 295 294 295 294 294 291 290 291 297 297 295 295 296 298 298 299 300 301 301 301 301 302 302 303 303 303 304 306 306 311 312 312 312 311 314 315 315 313 311 311
296 297 295 295 293 291 295 295 294 295 294 294 289 290 293 292 295 296 295 296 296 297 297 299 300 299 300 302 301 303 302 302 302 305 303 308 309 310 309 308 311 313 314 314 315 314 310
297 298 296 295 294 292 292 294 294 294 294 293 291 292 293 293 294 295 295 295 296 295 297 298 301 299 299 301 301 302 301 301 302 303 303 304 309 309 309 308 306 308 313 313 311 316 316
297 296 295 294 294 292 294 294 293 294 294 294 292 293 292 292 294 294 295 295 295 295 296 297 297 297 300 300 299 299 299 300 301 303 303 304 306 307 307 308 308 310 312 313 311 311 314
297 296 296 295 293 292 293 293 293 294 293 293 293 292 292 292 294 294 295 295 295 294 295 295 296 298 299 298 299 302 301 301 302 302 302 304 304 306 310 309 309 307 312 311 311 311 314
297 296 296 295 293 295 293 292 293 294 294 293 293 293 293 293 294 294 294 294 294 294 295 295 296 298 297 300 303 303 302 302 302 302 302 303 304 307 308 309 306 311 309 310 311 316 314
297 296 294 293 294 294 292 292 292 294 294 294 293 293 294 292 293 293 294 294 295 294 296 296 296 296 298 299 300 303 303 303 303 303 302 302 303 306 305 308 307 306 306 307 310 317 316
295 295 294 294 294 293 292 292 293 294 293 294 293 293 293 294 292 293 295 295 293 295 296 295 295 296 296 299 302 304 304 302 305 305 306 306 305 305 305 305 306 306 305 309 314 315 315
295 295 294 294 294 293 293 293 293 293 293 293 293 293 293 293 292 292 293 293 294 294 295 294 294 297 297 299 300 301 302 302 303 302 304 307 307 305 305 306 304 305 309 313 312 312 313
295 295 294 293 293 293 292 292 292 293 293 293 293 293 293 292 291 291 292 292 293 294 294 294 294 295 297 299 299 299 300 301 300 305 303 307 306 306 304 305 303 309 310 310 309 311 310
Wind_Speed
4 2 0 2 4 5 6 7 9 11 13 14 16 17 18 20 21 24 27 29 29 28 25 24 19 15 7 3 9 7 12 7 4 3 6 7 6 6 6 5 6 8 5 7 11 12 10
3 2 2 2 4 5 5 6 8 8 10 14 15 17 19 21 23 25 29 31 29 26 25 19 14 5 2 4 3 6 10 14 11 4 1 5 5 4 4 5 10 3 6 13 10 13 7
5 3 2 0 2 4 5 7 7 8 10 12 14 17 20 22 24 27 29 30 29 24 16 12 9 6 4 14 7 16 17 14 15 15 6 7 4 2 1 4 3 5 12 11 10 7 9
6 6 3 2 2 4 4 5 6 8 10 12 15 16 19 22 26 30 32 32 23 12 9 11 0 5 7 7 13 8 17 12 11 8 17 22 12 10 4 5 4 5 5 6 1 11 7
5 4 3 2 0 1 3 5 6 7 9 11 13 16 19 22 27 30 33 27 10 4 10 6 2 2 9 11 4 7 11 11 18 4 3 3 7 6 5 8 9 6 14 10 5 8 5
5 5 3 4 2 3 4 5 6 7 8 10 12 15 19 22 28 27 32 17 6 3 9 3 1 4 3 8 13 18 26 16 4 7 2 4 4 6 6 10 16 10 11 9 15 6 10
7 5 4 4 1 3 4 4 6 7 8 11 12 16 19 23 23 24 34 7 9 5 10 4 16 7 18 13 24 6 13 8 4 5 6 5 7 19 18 20 19 13 11 14 6 2 6
9 6 5 3 1 2 3 4 5 7 8 10 12 16 20 24 14 21 29 8 6 5 11 20 21 14 25 13 6 14 6 4 5 13 10 5 19 12 11 15 15 17 20 25 14 12 11
8 6 6 4 2 1 2 3 5 6 6 10 12 15 21 21 5 22 13 11 14 13 5 9 6 6 7 4 4 7 6 3 9 17 16 18 28 17 11 10 17 20 23 18 17 8 10
8 8 8 5 2 2 1 2 3 4 7 10 12 14 20 16 4 15 4 17 18 3 4 6 5 2 13 14 5 23 3 5 4 7 13 17 27 14 9 18 15 19 11 17 15 9 11
9 7 5 4 3 1 1 2 2 4 6 9 12 14 17 16 5 3 10 17 14 2 5 12 5 5 17 18 16 7 12 5 19 16 6 12 5 18 23 19 15 9 10 15 16 15 10
8 6 5 5 3 2 2 3 3 4 6 9 11 13 13 8 6 5 13 14 4 2 5 7 9 17 17 16 16 10 11 13 8 11 14 24 14 10 19 13 20 6 6 5 3 6 8
9 6 6 6 4 3 1 2 2 4 7 9 11 12 9 7 2 6 10 5 2 2 6 8 10 13 20 8 11 15 21 15 9 6 11 11 22 16 9 12 13 17 12 6 7 6 9
10 9 8 7 4 5 1 1 2 4 6 8 10 10 5 5 4 1 4 4 4 0 5 7 8 22 6 10 15 17 14 15 16 17 12 9 8 21 16 18 12 19 17 8 9 7 7
10 8 7 9 5 5 2 1 2 4 5 8 9 7 5 9 4 5 4 4 3 3 4 9 16 8 8 8 11 10 9 6 7 11 6 4 6 4 10 12 16 9 17 16 2 1 3
12 9 9 9 7 6 3 2 0 3 4 6 5 3 6 2 7 4 3 1 2 4 6 4 5 3 12 13 13 12 6 7 11 8 10 3 6 6 0 15 12 10 17 9 6 9 7
15 11 11 8 8 8 4 4 1 1 3 4 4 3 5 8 4 3 2 2 4 7 7 3 5 8 9 12 8 5 5 11 9 15 11 7 3 2 5 7 19 12 11 7 9 5 10
16 13 12 11 9 9 6 5 3 1 1 2 4 2 5 4 3 2 1 3 3 6 4 7 6 9 10 14 7 5 5 6 16 12 14 4 4 6 12 4 1 11 21 11 11 13 7
20 17 13 13 12 10 8 7 4 3 2 4 2 1 2 2 2 1 3 3 4 3 5 3 3 2 10 8 7 8 8 11 10 14 9 7 3 5 5 3 5 6 4 5 15 0 14
22 22 15 12 13 10 11 8 6 5 5 4 2 2 2 1 2 2 1 3 3 4 4 2 4 4 11 9 8 10 11 9 19 16 13 1 4 8 2 3 1 1 3 6 5 12 16
25 27 20 16 13 11 10 9 7 8 9 4 2 2 2 1 1 1 1 3 4 4 3 2 2 8 10 6 13 4 13 19 13 8 12 1 2 6 14 7 1 3 2 3 2 3 13
22 29 21 20 17 13 12 11 10 12 12 2 3 3 2 1 2 2 2 2 2 3 3 4 4 13 13 9 12 19 17 16 10 9 12 8 3 3 3 13 6 1 0 5 3 2 4
23 25 23 22 19 14 15 14 13 15 16 3 3 2 3 1 2 2 3 2 1 7 5 8 10 15 11 11 12 20 18 19 17 16 9 6 7 9 5 6 7 5 2 1 2 4 3
25 26 24 22 18 15 16 16 15 18 20 8 6 5 3 3 4 4 3 2 8 8 10 14 13 6 5 15 17 13 10 14 12 13 10 7 9 4 6 10 3 1 5 6 2 11 7
28 29 25 21 18 18 17 15 16 20 20 15 9 5 3 2 5 6 9 7 7 8 9 10 11 5 10 7 5 8 4 3 3 1 6 12 3 4 3 6 4 2 4 2 1 2 1
31 29 24 22 22 21 19 18 18 20 20 21 15 10 3 2 5 4 5 4 4 3 5 3 5 8 3 1 2 3 3 4 4 9 6 5 5 3 4 4 2 1 6 5 3 1 2
29 28 28 25 25 22 20 19 18 19 19 21 8 20 5 2 4 5 4 3 2 2 3 4 7 5 3 3 3 2 2 5 4 6 6 3 1 6 6 4 6 5 12 6 2 3 6
31 30 31 27 26 23 19 19 19 19 19 22 12 15 12 3 4 6 4 5 3 3 4 3 5 0 3 4 3 3 3 3 4 7 6 3 3 1 2 3 6 14 8 4 3 2 4
32 35 33 27 24 24 21 19 18 17 17 21 6 16 20 3 4 3 12 22 19 12 3 2 3 3 2 2 1 3 3 2 5 4 2 3 1 3 4 3 4 9 7 8 6 1 4
Wind_Direction
201 215 215 51 52 48 29 16 12 13 4 3 356 353 350 346 341 339 336 337 337 335 328 323 317 322 350 345 249 261 305 347 359 188 219 179 170 196 218 213 208 237 243 224 237 248 249
183 166 145 83 59 59 30 22 13 356 352 356 357 353 347 342 339 339 335 337 337 333 324 319 311 286 109 278 257 272 310 313 314 307 273 206 214 229 249 228 224 249 256 261 264 254 252
157 186 187 91 2 15 32 25 12 3 358 4 355 349 345 346 345 342 344 342 333 327 324 328 300 183 164 243 286 303 309 307 295 256 253 237 294 261 306 259 253 257 284 271 244 237 239
191 170 171 189 310 22 28 25 11 355 356 352 352 348 343 346 349 348 347 343 338 343 350 347 76 155 244 300 327 3 0 342 342 303 238 254 260 245 219 284 299 265 266 273 302 208 226
203 188 202 234 141 42 5 5 354 360 356 359 359 351 348 351 355 353 348 340 356 23 9 16 75 74 277 321 347 344 352 329 327 345 249 299 168 203 173 221 259 233 254 253 281 206 212
182 165 166 166 229 37 11 13 1 359 1 2 6 353 357 356 357 2 355 337 359 22 2 322 62 294 268 321 325 314 308 300 293 316 110 176 221 214 200 195 234 234 241 239 244 203 208
187 189 194 188 185 45 27 9 346 5 9 10 3 1 355 357 358 10 8 21 14 356 34 259 285 256 286 289 316 302 303 320 230 214 220 200 217 224 208 214 232 240 244 252 248 224 266
192 189 198 174 103 8 7 19 356 14 20 8 5 1 358 359 12 14 39 70 67 290 299 291 268 263 268 273 316 312 314 267 243 237 202 202 234 232 209 209 218 227 244 253 261 257 272
193 202 198 201 215 276 336 6 5 21 5 5 6 6 2 357 38 25 49 45 355 344 273 301 285 283 332 325 267 307 314 268 247 250 220 218 242 208 208 206 215 229 235 251 253 259 254
198 204 202 214 199 249 313 355 357 27 9 9 10 10 9 6 43 358 27 348 345 4 320 298 348 25 352 349 249 320 254 241 273 291 237 234 255 226 199 224 209 239 219 235 237 229 251
211 206 221 192 202 233 68 22 34 34 11 10 10 11 13 26 355 28 324 333 342 130 320 340 349 344 339 348 282 322 305 254 259 262 281 236 258 205 222 211 187 231 194 211 222 226 254
185 192 194 187 195 146 77 56 60 28 7 4 3 6 1 2 14 343 331 340 14 52 283 342 340 335 339 337 328 326 325 300 244 248 238 255 282 235 221 208 211 176 136 139 147 195 241
204 201 205 203 201 202 119 60 25 12 0 2 359 359 5 346 353 328 336 17 64 102 356 327 324 333 320 314 325 333 325 307 277 230 244 276 235 237 229 206 194 186 175 191 209 200 238
205 222 211 202 213 212 171 342 0 5 353 353 358 357 44 32 336 293 15 58 80 137 279 317 327 314 305 342 333 319 317 324 326 255 260 271 273 211 225 216 192 193 187 188 209 210 235
205 214 233 198 206 220 256 286 7 11 351 350 359 35 58 16 87 127 72 64 184 235 307 330 324 324 317 314 326 317 327 324 336 314 284 249 255 208 211 196 172 182 199 201 157 65 188
202 214 220 200 210 222 251 216 69 30 358 357 25 53 20 44 118 53 72 92 236 220 300 309 301 297 308 324 329 339 340 315 321 315 316 268 269 220 132 186 231 189 188 186 220 211 208
199 200 209 204 211 224 224 201 172 36 4 3 63 70 21 107 55 56 107 250 279 276 285 264 262 293 289 309 308 302 276 285 275 325 348 297 247 275 151 189 202 211 196 192 198 212 217
199 205 202 206 225 216 208 184 175 220 349 78 88 81 172 20 62 108 238 205 278 287 261 254 258 262 264 301 285 283 269 280 302 331 343 318 320 262 241 97 59 219 213 193 197 189 217
212 201 207 209 209 211 208 199 195 190 168 130 98 148 48 172 115 171 278 276 236 286 311 304 285 337 321 291 301 268 287 298 331 327 348 329 331 286 211 206 55 36 24 271 244 6 220
216 206 205 203 201 206 207 198 197 183 179 140 103 86 340 301 179 143 316 278 295 271 261 290 267 328 331 309 307 291 305 311 328 310 316 273 310 319 38 26 331 161 297 353 226 213 221
226 213 202 205 198 204 204 199 196 186 179 164 52 205 189 191 181 216 252 249 292 322 305 284 252 359 334 296 310 281 317 323 318 338 346 275 321 327 346 339 140 245 341 9 31 241 208
230 201 200 205 205 205 217 206 200 185 176 119 136 150 157 240 273 216 224 239 267 336 278 300 284 329 315 286 280 298 311 308 298 316 337 334 287 332 264 306 313 183 268 11 9 115 72
214 210 205 205 203 214 204 208 205 190 174 153 141 109 107 225 187 155 227 216 226 343 269 255 313 317 304 303 303 285 272 266 260 282 306 298 342 336 295 332 308 55 274 80 319 342 334
210 204 201 200 205 210 209 204 207 193 192 153 164 132 114 250 206 218 236 260 297 297 274 291 295 274 282 320 301 277 254 253 254 254 233 277 317 289 297 315 71 211 29 187 109 288 263
212 200 197 201 206 198 202 211 210 200 198 191 172 152 165 215 224 249 260 273 290 289 286 268 282 251 315 311 308 319 324 325 324 73 208 215 266 287 320 319 296 76 55 77 152 270 77
208 200 201 204 204 200 215 222 212 203 201 201 199 185 139 136 232 240 270 260 276 287 295 261 303 306 341 292 304 287 307 324 328 334 86 153 247 278 334 318 314 90 322 294 207 253 129
210 208 200 204 202 207 213 209 208 204 199 199 198 208 175 209 247 177 215 217 196 254 264 313 335 327 359 352 293 282 268 342 323 318 341 335 350 250 265 281 292 315 317 307 287 13 117
216 211 198 201 200 201 205 204 206 204 195 196 207 204 192 191 261 198 217 212 220 206 243 339 334 45 327 5 330 324 332 331 300 303 292 293 314 250 201 233 256 358 331 29 321 292 152
210 203 200 200 199 203 201 200 201 201 194 197 186 200 202 182 261 249 255 248 238 220 245 234 251 340 275 304 333 314 300 270 310 300 326 278 233 294 242 249 342 346 313 319 270 212 4